Date String (YYYY-MM-DD hh:mm:ss) UTC,Instrument flags,absolute air pressure of the measurement (hPa),sample flow rate (lpm),inlet stack bypass flow (lpm),air temperature of the measurement (°C),ambient temperature measured by the external sensor (°C),aerosol sample conditioner tube jacket temperature (°C),OPC LED temperature (°C),internal box temperature (°C),relative humidity of the measurement (%),span deviation,mass concentration of particles derived from Lorenz-Mie calculation of OPC scattering (μg/m³),mass concentration of particles derived from Lorenz-Mie calculation of OPC scattering (μg/m³),mass concentration of particles derived from Lorenz-Mie calculation of OPC scattering (μg/m³)
DateTimeUTC,F1_M11,P_M11,Q1_M11,Q2_M11,T1_M11,T2_M11,T3_M11,T4_M11,T5_M11,U1_M11,ZSPAN_M11,X2_M11,X0_M11,X1_M11
2023-12-03 05:00:00,SystemResetWarning,0817.0,5.00,000.00,018.9,018.3,000.0,027.2,020.0,12.0,0000.0,0001.60,0015.15,0000.50
2023-12-03 05:01:00,SystemResetWarning,0816.9,4.99,000.00,018.8,018.1,000.0,027.2,020.0,11.8,0000.0,0001.74,0015.66,0000.52
2023-12-03 05:02:00,SystemResetWarning,0817.0,4.99,000.00,018.8,018.0,000.0,027.2,020.0,11.8,0000.0,0001.87,0015.60,0000.53
2023-12-03 05:03:00,SystemResetWarning,0817.0,5.00,000.00,018.8,017.8,000.0,027.3,020.0,12.0,0000.0,0001.93,0015.19,0000.54
2023-12-03 05:04:00,SystemResetWarning,0816.9,5.01,000.00,018.8,017.7,000.0,027.2,020.0,12.0,0000.0,0001.99,0014.93,0000.55
2023-12-03 05:05:00,SystemResetWarning,0816.9,4.99,000.00,018.8,017.6,000.0,027.2,020.0,11.9,0000.0,0002.03,0014.64,0000.55
2023-12-03 05:06:00,SystemResetWarning,0817.0,5.00,000.00,018.7,017.5,000.0,027.3,020.0,11.9,0000.0,0002.09,0015.03,0000.54
2023-12-03 05:07:00,SystemResetWarning,0817.2,5.01,000.00,018.7,017.5,000.0,027.3,020.0,12.1,0000.0,0002.08,0016.03,0000.55
2023-12-03 05:08:00,SystemResetWarning,0816.9,5.00,000.00,018.7,017.6,000.0,027.3,020.2,12.1,0000.0,0002.11,0015.32,0000.55
2023-12-03 05:09:00,SystemResetWarning,0817.1,5.02,000.00,018.9,018.4,000.0,027.2,020.7,11.9,0000.0,0002.02,0013.18,0000.54
2023-12-03 05:10:00,SystemResetWarning,0817.2,4.99,000.00,019.0,019.1,000.0,027.2,021.0,11.8,0000.0,0001.91,0011.79,0000.53
2023-12-03 05:11:00,SystemResetWarning,0817.3,5.00,000.00,019.1,019.1,000.0,027.2,020.6,11.8,0000.0,0001.83,0011.07,0000.54
2023-12-03 05:12:00,SystemResetWarning,0817.2,5.01,000.00,019.0,018.8,000.0,027.2,020.2,12.0,0000.0,0001.70,0011.42,0000.52
2023-12-03 05:13:00,SystemResetWarning,0817.3,5.00,000.00,018.9,018.6,000.0,027.2,020.0,12.1,0000.0,0001.63,0012.04,0000.52
2023-12-03 05:14:00,SystemResetWarning,0817.2,5.00,000.00,018.9,018.4,000.0,027.2,020.0,12.1,0000.0,0001.63,0012.05,0000.51
2023-12-03 05:15:00,SystemResetWarning,0817.2,5.01,000.00,018.9,018.2,000.0,027.2,020.0,12.1,0000.0,0001.62,0012.43,0000.49
2023-12-03 05:16:00,SystemResetWarning,0817.1,5.00,000.00,018.8,018.0,000.0,027.2,020.0,12.0,0000.0,0001.67,0012.78,0000.50
2023-12-03 05:17:00,SystemResetWarning,0817.3,5.01,000.00,018.8,017.8,000.0,027.3,020.0,11.9,0000.0,0001.74,0012.56,0000.52
2023-12-03 05:18:00,SystemResetWarning,0817.2,5.00,000.00,018.8,017.7,000.0,027.3,020.0,12.1,0000.0,0001.77,0012.53,0000.52
2023-12-03 05:19:00,SystemResetWarning,0817.2,4.99,000.00,018.8,017.6,000.0,027.3,020.0,12.2,0000.0,0001.78,0012.72,0000.53
2023-12-03 05:20:00,SystemResetWarning,0817.1,5.00,000.00,018.8,017.5,000.0,027.3,020.0,12.2,0000.0,0001.80,0012.06,0000.54
2023-12-03 05:21:00,SystemResetWarning,0817.3,5.01,000.00,018.8,017.6,000.0,027.3,020.1,12.1,0000.0,0001.84,0011.79,0000.55
2023-12-03 05:22:00,SystemResetWarning,0817.2,5.01,000.00,018.9,018.1,000.0,027.2,020.6,12.3,0000.0,0001.89,0011.70,0000.54
2023-12-03 05:23:00,SystemResetWarning,0817.2,5.00,000.00,019.0,019.1,000.0,027.2,021.1,12.2,0000.0,0001.93,0010.91,0000.54
2023-12-03 05:24:00,SystemResetWarning,0817.2,4.98,000.00,019.1,019.2,000.0,027.3,020.9,12.0,0000.0,0001.92,0010.38,0000.54
2023-12-03 05:25:00,SystemResetWarning,0817.1,5.00,000.00,019.1,019.0,000.0,027.3,020.5,12.2,0000.0,0001.82,0010.41,0000.54
2023-12-03 05:26:00,SystemResetWarning,0817.0,5.00,000.00,019.0,018.7,000.0,027.3,020.1,12.1,0000.0,0001.81,0010.17,0000.55
2023-12-03 05:27:00,SystemResetWarning,0817.1,5.00,000.00,019.0,018.5,000.0,027.3,020.0,12.1,0000.0,0001.82,0010.29,0000.56
2023-12-03 05:28:00,SystemResetWarning,0817.1,5.00,000.00,018.9,018.3,000.0,027.3,020.0,12.2,0000.0,0001.75,0010.43,0000.55
2023-12-03 05:29:00,SystemResetWarning,0817.1,5.00,000.00,018.9,018.1,000.0,027.3,020.0,12.3,0000.0,0001.83,0009.63,0000.55
2023-12-03 05:30:00,SystemResetWarning,0817.1,5.00,000.00,018.9,018.0,000.0,027.3,020.0,12.3,0000.0,0001.85,0010.64,0000.55
2023-12-03 05:31:00,SystemResetWarning,0817.1,5.01,000.00,018.8,017.9,000.0,027.3,020.0,12.3,0000.0,0001.89,0010.92,0000.55
2023-12-03 05:32:00,SystemResetWarning,0817.4,5.00,000.00,018.8,017.8,000.0,027.3,020.0,12.5,0000.0,0001.87,0010.91,0000.55
2023-12-03 05:33:00,SystemResetWarning,0817.4,4.99,000.00,018.8,017.7,000.0,027.3,020.0,12.6,0000.0,0001.90,0011.02,0000.54
2023-12-03 05:34:00,SystemResetWarning,0817.2,5.00,000.00,018.8,017.6,000.0,027.3,020.0,12.5,0000.0,0002.00,0012.89,0000.55
2023-12-03 05:35:00,SystemResetWarning,0817.4,5.02,000.00,018.8,017.6,000.0,027.3,020.0,12.3,0000.0,0002.06,0013.29,0000.55
2023-12-03 05:36:00,SystemResetWarning,0817.5,5.00,000.00,018.8,017.8,000.0,027.3,020.4,12.2,0000.0,0002.15,0012.90,0000.56
2023-12-03 05:37:00,SystemResetWarning,0817.5,4.99,000.00,019.0,018.7,000.0,027.3,020.9,12.2,0000.0,0002.15,0012.58,0000.55
2023-12-03 05:38:00,SystemResetWarning,0817.6,4.99,000.00,019.1,019.2,000.0,027.3,020.9,12.1,0000.0,0002.13,0012.59,0000.54
2023-12-03 05:39:00,SystemResetWarning,0817.7,5.00,000.00,019.1,019.0,000.0,027.3,020.6,12.0,0000.0,0002.18,0012.89,0000.54
2023-12-03 05:40:00,SystemResetWarning,0817.8,5.00,000.00,019.0,018.7,000.0,027.3,020.2,12.2,0000.0,0002.12,0013.93,0000.54
2023-12-03 05:41:00,SystemResetWarning,0817.8,5.01,000.00,019.0,018.5,000.0,027.3,020.0,12.1,0000.0,0002.13,0013.35,0000.55
2023-12-03 05:42:00,SystemResetWarning,0818.0,5.01,000.00,019.0,018.3,000.0,027.3,020.0,12.1,0000.0,0002.33,0026.54,0000.56
2023-12-03 05:43:00,SystemResetWarning,0817.9,4.99,000.00,018.9,018.1,000.0,027.3,020.0,12.3,0000.0,0002.36,0028.75,0000.56
2023-12-03 05:44:00,SystemResetWarning,0818.0,5.00,000.00,018.9,017.9,000.0,027.3,020.0,12.3,0000.0,0002.36,0029.35,0000.57
2023-12-03 05:45:00,SystemResetWarning,0818.1,5.00,000.00,018.8,017.8,000.0,027.3,020.0,12.2,0000.0,0002.25,0029.42,0000.56
2023-12-03 05:46:00,SystemResetWarning,0818.1,5.00,000.00,018.8,017.6,000.0,027.3,020.0,12.3,0000.0,0002.20,0029.56,0000.55
2023-12-03 05:47:00,SystemResetWarning,0818.0,4.99,000.00,018.8,017.5,000.0,027.3,020.0,12.3,0000.0,0002.18,0029.74,0000.54
2023-12-03 05:48:00,SystemResetWarning,0818.1,5.00,000.00,018.8,017.5,000.0,027.3,020.0,12.2,0000.0,0002.12,0030.50,0000.53
2023-12-03 05:49:00,SystemResetWarning,0818.3,5.01,000.00,018.8,017.4,000.0,027.3,020.0,12.2,0000.0,0002.05,0030.41,0000.52
2023-12-03 05:50:00,SystemResetWarning,0818.4,5.01,000.00,018.8,017.4,000.0,027.3,020.2,12.4,0000.0,0002.00,0029.62,0000.53
2023-12-03 05:51:00,SystemResetWarning,0818.4,5.00,000.00,018.9,018.2,000.0,027.3,020.7,12.5,0000.0,0001.88,0028.48,0000.52
2023-12-03 05:52:00,SystemResetWarning,0818.4,5.00,000.00,019.1,019.2,000.0,027.3,021.1,12.4,0000.0,0001.89,0028.13,0000.50
2023-12-03 05:53:00,SystemResetWarning,0818.4,5.00,000.00,019.1,019.2,000.0,027.3,020.8,12.2,0000.0,0001.64,0014.09,0000.48
2023-12-03 05:54:00,SystemResetWarning,0818.3,4.99,000.00,019.1,019.0,000.0,027.3,020.4,12.1,0000.0,0001.56,0012.18,0000.47
2023-12-03 05:55:00,SystemResetWarning,0818.4,5.00,000.00,019.1,018.7,000.0,027.3,020.1,12.1,0000.0,0001.43,0011.57,0000.46
2023-12-03 05:56:00,SystemResetWarning,0818.4,5.01,000.00,019.0,018.5,000.0,027.3,020.0,12.2,0000.0,0001.35,0009.95,0000.45
2023-12-03 05:57:00,SystemResetWarning,0818.4,5.00,000.00,019.0,018.2,000.0,027.3,020.0,12.4,0000.0,0001.27,0009.59,0000.44
2023-12-03 05:58:00,SystemResetWarning,0818.4,5.00,000.00,018.9,018.0,000.0,027.3,020.0,12.5,0000.0,0001.19,0009.26,0000.43
2023-12-03 05:59:00,SystemResetWarning,0818.4,5.01,000.00,018.9,017.9,000.0,027.3,020.0,12.6,0000.0,0001.21,0008.26,0000.43
